Location: Paddlesworth
(51.1000°N, 1.1333°E)
Time: 08:24:56
(UTC+00:00)

Cosmos 1743 - Pass Details

Date: 11 May 2021
Orbit: 510 x 525 km, 82.6° (Epoch: 20 June)

Event Time Altitude Azimuth Distance (km) Brightness Sun altitude
Rises 22:42:16 0° 344° (NNW) 2,654 8.0 -19.1°
Reaches altitude 10° 22:44:28 10° 338° (NNW) 1,763 6.6 -19.2°
Maximum altitude 22:48:09 44° 266° (W) 733 3.5 -19.4°
Enters shadow 22:49:09 35° 225° (SW) 855 3.5 -19.4°
